| time (UTC) | temp F | wind direction | speed MPH | gust MPH | rain 1hr in | rain 24hr in | rain mn in | humidity % | barometer mb |
| 20260905190054 | 79 | 0 | 1.0 | 8.0 | 0.00 | 0.00 | 0.00 | 52 | 1011.2 |
| 20260905184609 | 77 | 0 | 0.0 | 4.0 | 0.00 | 0.00 | 0.00 | 61 | 1011.3 |
| 20260905183058 | 78 | 0 | 1.0 | 8.0 | 0.00 | 0.00 | 0.00 | 54 | 1011.5 |
| 20260905181555 | 78 | 0 | 0.0 | 1.0 | 0.00 | 0.00 | 0.00 | 57 | 1011.4 |
| 20260905180105 | 78 | 0 | 0.0 | 4.0 | 0.00 | 0.00 | 0.00 | 55 | 1011.5 |
| 20260905174557 | 78 | 0 | 0.0 | 8.0 | 0.00 | 0.00 | 0.00 | 50 | 1011.4 |
| 20260905173105 | 77 | 19 | 0.0 | 9.0 | 0.00 | 0.00 | 0.00 | 55 | 1011.6 |
| 20260905171553 | 76 | 0 | 0.0 | 3.0 | 0.00 | 0.00 | 0.00 | 56 | 1011.7 |
| 20260905164554 | 77 | 0 | 0.0 | 8.0 | 0.00 | 0.00 | 0.00 | 55 | 1011.9 |
| 20260905163056 | 76 | 0 | 0.0 | 8.0 | 0.00 | 0.00 | 0.00 | 55 | 1012.1 |
| 20260905161557 | 76 | 0 | 0.0 | 6.0 | 0.00 | 0.00 | 0.00 | 56 | 1012.3 |
| 20260905160056 | 76 | 17 | 0.0 | 8.0 | 0.00 | 0.00 | 0.00 | 58 | 1012.5 |
| 20260905154557 | 76 | 0 | 0.0 | 4.0 | 0.00 | 0.00 | 0.00 | 58 | 1012.3 |
| 20260905153052 | 75 | 23 | 0.0 | 7.0 | 0.00 | 0.00 | 0.00 | 60 | 1012.4 |
| 20260905151612 | 75 | 0 | 1.0 | 8.0 | 0.00 | 0.00 | 0.00 | 59 | 1012.4 |
| 20260905150055 | 74 | 0 | 0.0 | 8.0 | 0.00 | 0.00 | 0.00 | 61 | 1012.2 |
| 20260905144558 | 74 | 0 | 2.0 | 9.0 | 0.00 | 0.00 | 0.00 | 60 | 1012.1 |
| 20260905143103 | 74 | 0 | 1.0 | 7.0 | 0.00 | 0.00 | 0.00 | 63 | 1012.1 |
| 20260905141558 | 73 | 0 | 1.0 | 7.0 | 0.00 | 0.00 | 0.00 | 65 | 1012.2 |
| 20260905140056 | 73 | 0 | 1.0 | 5.0 | 0.00 | 0.00 | 0.00 | 67 | 1012.3 |
| 20260905134605 | 73 | 0 | 1.0 | 9.0 | 0.00 | 0.00 | 0.00 | 68 | 1012.3 |
| 20260905133100 | 72 | 61 | 2.0 | 6.0 | 0.00 | 0.00 | 0.00 | 70 | 1012.2 |
| 20260905131607 | 71 | 44 | 0.0 | 4.0 | 0.00 | 0.00 | 0.00 | 74 | 1012.2 |
| 20260905124606 | 69 | 0 | 0.0 | 0.0 | 0.00 | 0.00 | 0.00 | 80 | 1012.1 |
| 20260905123104 | 68 | 0 | 0.0 | 0.0 | 0.00 | 0.00 | 0.00 | 84 | 1012.3 |
| 20260905121600 | 68 | 0 | 0.0 | 0.0 | 0.00 | 0.00 | 0.00 | 85 | 1012.4 |
| 20260905120057 | 68 | 0 | 0.0 | 0.0 | 0.00 | 0.00 | 0.00 | 83 | 1012.4 |
| 20260905114556 | 68 | 0 | 0.0 | 0.0 | 0.00 | 0.00 | 0.00 | 82 | 1012.3 |
| 20260905113101 | 68 | 0 | 0.0 | 0.0 | 0.00 | 0.00 | 0.00 | 82 | 1012.1 |
| 20260905111557 | 68 | 0 | 0.0 | 0.0 | 0.00 | 0.00 | 0.00 | 81 | 1012.0 |
| 20260905110109 | 68 | 0 | 0.0 | 0.0 | 0.00 | 0.00 | 0.00 | 82 | 1012.0 |
| 20260905104556 | 68 | 0 | 0.0 | 0.0 | 0.00 | 0.00 | 0.00 | 81 | 1011.7 |
| 20260905103056 | 68 | 0 | 0.0 | 0.0 | 0.00 | 0.00 | 0.00 | 81 | 1011.5 |
| 20260905101609 | 68 | 0 | 0.0 | 0.0 | 0.00 | 0.00 | 0.00 | 83 | 1011.3 |
| 20260905100056 | 69 | 0 | 0.0 | 0.0 | 0.00 | 0.00 | 0.00 | 83 | 1011.2 |
| 20260905094556 | 69 | 0 | 0.0 | 0.0 | 0.00 | 0.00 | 0.00 | 83 | 1011.2 |
| 20260905093126 | 69 | 0 | 0.0 | 0.0 | 0.00 | 0.00 | 0.00 | 83 | 1011.2 |
| 20260905091605 | 69 | 0 | 0.0 | 0.0 | 0.00 | 0.00 | 0.00 | 82 | 1011.2 |
| 20260905090055 | 69 | 0 | 0.0 | 0.0 | 0.00 | 0.00 | 0.00 | 82 | 1011.2 |
| 20260905084602 | 69 | 0 | 0.0 | 0.0 | 0.00 | 0.00 | 0.00 | 80 | 1011.0 |
| 20260905083108 | 69 | 0 | 0.0 | 0.0 | 0.00 | 0.00 | 0.00 | 80 | 1011.0 |
| 20260905081558 | 69 | 0 | 0.0 | 0.0 | 0.00 | 0.00 | 0.00 | 81 | 1010.9 |
| 20260905080107 | 69 | 0 | 0.0 | 0.0 | 0.00 | 0.00 | 0.00 | 80 | 1011.1 |
| 20260905074554 | 69 | 0 | 0.0 | 3.0 | 0.00 | 0.00 | 0.00 | 81 | 1011.1 |
| 20260905073058 | 69 | 0 | 0.0 | 0.0 | 0.00 | 0.00 | 0.00 | 83 | 1011.0 |
| 20260905071556 | 69 | 0 | 0.0 | 0.0 | 0.00 | 0.00 | 0.00 | 84 | 1011.1 |
| 20260905070106 | 69 | 0 | 0.0 | 0.0 | 0.00 | 0.00 | 0.00 | 84 | 1011.3 |
| 20260905064600 | 69 | 0 | 0.0 | 0.0 | 0.00 | 0.00 | 0.00 | 84 | 1011.3 |
| 20260905063059 | 69 | 0 | 0.0 | 0.0 | 0.00 | 0.00 | 0.00 | 84 | 1011.4 |
| 20260905061605 | 69 | 0 | 0.0 | 0.0 | 0.00 | 0.00 | 0.00 | 82 | 1011.5 |
| 20260905060055 | 70 | 0 | 0.0 | 0.0 | 0.00 | 0.00 | 0.00 | 82 | 1011.4 |
| 20260905054559 | 70 | 0 | 0.0 | 0.0 | 0.00 | 0.00 | 0.00 | 82 | 1011.5 |
| 20260905053056 | 71 | 0 | 0.0 | 0.0 | 0.00 | 0.00 | 0.00 | 81 | 1011.6 |
| 20260905051556 | 71 | 0 | 0.0 | 0.0 | 0.00 | 0.00 | 0.00 | 80 | 1011.8 |
| 20260905050055 | 72 | 0 | 0.0 | 0.0 | 0.00 | 0.00 | 0.00 | 79 | 1011.8 |
| 20260905044609 | 72 | 0 | 0.0 | 0.0 | 0.00 | 0.00 | 0.00 | 79 | 1011.9 |
| 20260905043112 | 73 | 0 | 0.0 | 0.0 | 0.00 | 0.00 | 0.00 | 77 | 1011.9 |
| 20260905041601 | 73 | 0 | 0.0 | 0.0 | 0.00 | 0.00 | 0.00 | 76 | 1011.9 |
| 20260905040115 | 73 | 0 | 0.0 | 0.0 | 0.00 | 0.00 | 0.00 | 75 | 1012.1 |
| 20260905034620 | 74 | 0 | 0.0 | 0.0 | 0.00 | 0.00 | 0.00 | 73 | 1012.1 |
| 20260905033057 | 74 | 0 | 0.0 | 2.0 | 0.00 | 0.00 | 0.00 | 73 | 1012.1 |
| 20260905031604 | 73 | 0 | 0.0 | 3.0 | 0.00 | 0.00 | 0.00 | 74 | 1012.0 |
| 20260905030115 | 73 | 0 | 0.0 | 1.0 | 0.00 | 0.00 | 0.00 | 79 | 1012.0 |
| 20260905024602 | 73 | 0 | 0.0 | 0.0 | 0.00 | 0.00 | 0.00 | 80 | 1011.9 |
| 20260905023106 | 74 | 0 | 0.0 | 0.0 | 0.00 | 0.00 | 0.00 | 82 | 1011.9 |
| 20260905021556 | 74 | 0 | 0.0 | 0.0 | 0.00 | 0.00 | 0.00 | 82 | 1012.0 |
| 20260905014559 | 74 | 0 | 0.0 | 0.0 | 0.00 | 0.00 | 0.00 | 83 | 1012.1 |
| 20260905013059 | 75 | 0 | 0.0 | 0.0 | 0.00 | 0.00 | 0.00 | 82 | 1012.1 |
| 20260905011555 | 75 | 0 | 0.0 | 0.0 | 0.00 | 0.00 | 0.00 | 81 | 1012.2 |
| 20260905004629 | 75 | 0 | 0.0 | 0.0 | 0.00 | 0.00 | 0.00 | 79 | 1012.1 |
| 20260905003055 | 76 | 0 | 0.0 | 0.0 | 0.00 | 0.00 | 0.00 | 78 | 1012.0 |
| 20260905001603 | 76 | 0 | 0.0 | 0.0 | 0.00 | 0.00 | 0.00 | 79 | 1011.9 |
| 20260905000059 | 76 | 0 | 0.0 | 0.0 | 0.00 | 0.00 | 0.00 | 77 | 1011.7 |
| 20260904234557 | 77 | 0 | 0.0 | 0.0 | 0.00 | 0.00 | 0.00 | 75 | 1011.5 |
| 20260904233054 | 78 | 0 | 0.0 | 0.0 | 0.00 | 0.00 | 0.00 | 73 | 1011.6 |
| 20260904231552 | 79 | 0 | 0.0 | 0.0 | 0.00 | 0.00 | 0.00 | 72 | 1011.4 |
| 20260904230128 | 79 | 0 | 0.0 | 0.0 | 0.00 | 0.00 | 0.00 | 72 | 1011.6 |
| 20260904224601 | 80 | 0 | 0.0 | 0.0 | 0.00 | 0.00 | 0.00 | 70 | 1011.6 |
| 20260904223053 | 80 | 0 | 0.0 | 0.0 | 0.00 | 0.00 | 0.00 | 69 | 1011.8 |
| 20260904221604 | 81 | 0 | 0.0 | 0.0 | 0.00 | 0.00 | 0.00 | 67 | 1011.8 |
| 20260904214554 | 82 | 0 | 0.0 | 0.0 | 0.00 | 0.00 | 0.00 | 63 | 1011.8 |
| 20260904213055 | 83 | 0 | 0.0 | 4.0 | 0.00 | 0.00 | 0.00 | 63 | 1011.9 |
| 20260904211601 | 83 | 0 | 0.0 | 6.0 | 0.00 | 0.00 | 0.00 | 61 | 1011.7 |
| 20260904210059 | 83 | 0 | 0.0 | 3.0 | 0.00 | 0.00 | 0.00 | 62 | 1011.6 |
| 20260904204605 | 84 | 0 | 1.0 | 8.0 | 0.00 | 0.00 | 0.00 | 60 | 1011.6 |
| 20260904203101 | 84 | 20 | 0.0 | 5.0 | 0.00 | 0.00 | 0.00 | 65 | 1011.5 |
| 20260904201557 | 84 | 0 | 0.0 | 7.0 | 0.00 | 0.00 | 0.00 | 61 | 1011.7 |
| 20260904200054 | 85 | 0 | 0.0 | 7.0 | 0.00 | 0.00 | 0.00 | 61 | 1012.0 |
| 20260904194609 | 84 | 0 | 0.0 | 5.0 | 0.00 | 0.00 | 0.00 | 62 | 1012.3 |
| 20260904193057 | 83 | 0 | 1.0 | 7.0 | 0.00 | 0.00 | 0.00 | 63 | 1012.6 |
| 20260904191554 | 84 | 0 | 0.0 | 4.0 | 0.00 | 0.00 | 0.00 | 64 | 1012.7 |
| 20260904190057 | 83 | 0 | 0.0 | 5.0 | 0.00 | 0.00 | 0.00 | 64 | 1012.7 |
| 20260904184601 | 82 | 0 | 0.0 | 5.0 | 0.00 | 0.00 | 0.00 | 65 | 1012.9 |
| 20260904183112 | 81 | 0 | 0.0 | 4.0 | 0.00 | 0.00 | 0.00 | 66 | 1013.1 |
| 20260904181554 | 81 | 0 | 0.0 | 5.0 | 0.00 | 0.00 | 0.00 | 68 | 1013.2 |
| 20260904174557 | 81 | 0 | 0.0 | 0.0 | 0.00 | 0.00 | 0.00 | 68 | 1013.1 |
| 20260904173105 | 82 | 0 | 0.0 | 2.0 | 0.00 | 0.00 | 0.00 | 66 | 1013.1 |
| 20260904171607 | 82 | 0 | 0.0 | 3.0 | 0.00 | 0.00 | 0.00 | 63 | 1012.9 |
| 20260904170058 | 82 | 0 | 0.0 | 4.0 | 0.00 | 0.00 | 0.00 | 68 | 1013.0 |
| 20260904164600 | 82 | 0 | 0.0 | 6.0 | 0.00 | 0.00 | 0.00 | 66 | 1013.2 |
| 20260904163108 | 83 | 0 | 0.0 | 10.0 | 0.00 | 0.00 | 0.00 | 63 | 1013.2 |
| 20260904161601 | 82 | 0 | 0.0 | 5.0 | 0.00 | 0.00 | 0.00 | 68 | 1013.2 |
| 20260904160106 | 80 | 0 | 0.0 | 10.0 | 0.00 | 0.00 | 0.00 | 67 | 1013.3 |
| 20260904154555 | 81 | 16 | 0.0 | 9.0 | 0.00 | 0.00 | 0.00 | 68 | 1013.4 |
| 20260904153105 | 81 | 0 | 0.0 | 6.0 | 0.00 | 0.00 | 0.00 | 69 | 1013.4 |
| 20260904151559 | 80 | 0 | 0.0 | 7.0 | 0.00 | 0.00 | 0.00 | 69 | 1013.6 |
| 20260904150106 | 79 | 0 | 0.0 | 7.0 | 0.00 | 0.00 | 0.00 | 72 | 1013.5 |
| 20260904144554 | 79 | 0 | 0.0 | 9.0 | 0.00 | 0.00 | 0.00 | 71 | 1013.5 |
| 20260904143102 | 79 | 0 | 0.0 | 10.0 | 0.00 | 0.00 | 0.00 | 74 | 1013.7 |
| 20260904141559 | 78 | 0 | 1.0 | 8.0 | 0.00 | 0.00 | 0.00 | 74 | 1013.3 |
| 20260904140106 | 78 | 0 | 0.0 | 3.0 | 0.00 | 0.00 | 0.00 | 75 | 1013.3 |
| 20260904134554 | 78 | 0 | 0.0 | 8.0 | 0.00 | 0.00 | 0.00 | 77 | 1013.5 |
| 20260904133104 | 77 | 21 | 1.0 | 11.0 | 0.00 | 0.00 | 0.00 | 76 | 1013.5 |
| 20260904131555 | 77 | 26 | 2.0 | 11.0 | 0.00 | 0.00 | 0.00 | 77 | 1013.5 |
| 20260904130104 | 77 | 0 | 0.0 | 4.0 | 0.00 | 0.00 | 0.00 | 80 | 1013.6 |
| 20260904124606 | 76 | 166 | 0.0 | 4.0 | 0.00 | 0.00 | 0.00 | 83 | 1013.5 |
| 20260904123057 | 75 | 0 | 0.0 | 6.0 | 0.00 | 0.00 | 0.00 | 88 | 1013.7 |
| 20260904121556 | 73 | 196 | 0.0 | 5.0 | 0.00 | 0.00 | 0.00 | 91 | 1013.5 |
| 20260904120108 | 73 | 0 | 0.0 | 0.0 | 0.00 | 0.00 | 0.00 | 94 | 1013.4 |
| 20260904114600 | 72 | 0 | 0.0 | 0.0 | 0.00 | 0.00 | 0.00 | 96 | 1013.3 |
| 20260904113057 | 71 | 0 | 0.0 | 0.0 | 0.00 | 0.00 | 0.00 | 96 | 1013.2 |
| 20260904111557 | 71 | 0 | 0.0 | 0.0 | 0.00 | 0.00 | 0.00 | 95 | 1013.0 |
| 20260904110059 | 71 | 0 | 0.0 | 0.0 | 0.00 | 0.00 | 0.00 | 95 | 1012.9 |
| 20260904104601 | 71 | 0 | 0.0 | 0.0 | 0.00 | 0.00 | 0.00 | 95 | 1012.6 |
| 20260904103056 | 72 | 0 | 0.0 | 0.0 | 0.00 | 0.00 | 0.00 | 95 | 1012.3 |
| 20260904101554 | 72 | 0 | 0.0 | 0.0 | 0.00 | 0.00 | 0.00 | 95 | 1012.2 |
| 20260904100101 | 72 | 0 | 0.0 | 0.0 | 0.00 | 0.00 | 0.00 | 95 | 1012.3 |
| 20260904094604 | 73 | 0 | 0.0 | 0.0 | 0.00 | 0.00 | 0.00 | 95 | 1012.5 |
| 20260904093102 | 73 | 0 | 0.0 | 1.0 | 0.00 | 0.00 | 0.00 | 95 | 1012.4 |
| 20260904091605 | 73 | 0 | 0.0 | 0.0 | 0.00 | 0.00 | 0.00 | 95 | 1012.6 |
| 20260904084604 | 73 | 0 | 0.0 | 0.0 | 0.00 | 0.00 | 0.00 | 94 | 1012.5 |
| 20260904083101 | 73 | 0 | 0.0 | 0.0 | 0.00 | 0.00 | 0.00 | 94 | 1012.3 |
| 20260904081603 | 73 | 0 | 0.0 | 0.0 | 0.00 | 0.00 | 0.00 | 93 | 1012.4 |
| 20260904080110 | 73 | 0 | 0.0 | 0.0 | 0.00 | 0.00 | 0.00 | 93 | 1012.4 |
| 20260904074603 | 73 | 0 | 0.0 | 0.0 | 0.00 | 0.00 | 0.00 | 93 | 1012.4 |
| 20260904073056 | 73 | 0 | 0.0 | 0.0 | 0.00 | 0.00 | 0.00 | 92 | 1012.4 |
| 20260904071601 | 73 | 0 | 0.0 | 0.0 | 0.00 | 0.00 | 0.00 | 92 | 1012.1 |